Wind_Speed
11 11 11 11 11 10 10 9 9 9 9 8 8 8 7 7 7 7 7 7 7 7 6 6 6 5 5 5 4 4 4 4 4 3 3 4 4 5 6 7 8 8 8
10 12 12 12 12 11 11 10 9 9 8 8 8 7 7 6 6 6 6 7 6 6 6 5 5 5 5 5 4 4 4 4 4 4 4 4 5 5 6 8 8 8 8
11 12 13 13 13 12 12 11 10 9 8 8 8 7 6 5 5 6 6 6 6 5 5 4 4 5 5 5 4 4 4 4 4 4 4 5 5 6 7 7 8 8 8
11 12 13 13 14 13 13 12 11 10 9 8 7 6 5 5 5 5 5 5 5 5 5 4 4 4 4 4 4 4 4 4 4 4 4 5 6 7 7 7 8 8 8
11 12 13 14 14 14 13 13 12 11 10 9 7 6 5 4 4 4 4 4 4 5 4 4 4 4 3 3 4 4 4 3 3 3 4 5 6 7 7 7 8 8 7
11 12 13 14 14 14 13 13 12 11 10 9 8 6 4 3 3 3 3 3 4 4 4 3 3 3 3 3 3 3 3 3 3 4 5 5 6 7 7 8 8 7 7
11 12 14 14 14 14 14 14 13 12 11 10 8 6 4 3 2 2 2 3 3 3 2 2 2 2 2 2 2 2 2 2 3 4 5 6 7 6 7 8 8 8 8
12 13 14 15 16 15 15 15 13 12 11 10 8 6 4 3 2 1 1 2 2 2 2 1 1 1 1 1 2 3 3 3 3 4 5 6 7 7 8 8 8 8 8
12 14 15 16 17 16 16 15 14 13 12 10 9 7 5 3 2 1 1 1 1 1 1 2 2 1 1 1 2 3 3 4 4 5 6 6 7 8 8 9 8 8 8
13 14 16 16 17 17 17 16 15 14 13 11 9 7 5 3 2 1 0 1 1 1 2 2 2 2 1 2 3 4 4 5 5 6 6 7 8 9 9 9 9 8 8
13 15 16 18 18 18 18 17 16 15 13 12 10 8 6 4 3 1 1 1 2 2 2 3 3 2 2 2 3 4 5 5 6 6 7 8 9 9 10 10 10 9 8
13 14 17 19 19 18 18 18 17 16 14 13 11 9 7 5 4 3 2 2 3 3 3 3 3 2 2 2 4 4 5 5 6 7 7 8 9 10 10 11 10 10 9
13 15 17 19 20 20 19 19 18 17 15 14 12 10 8 7 5 4 3 3 4 4 4 3 3 2 2 2 3 4 5 6 6 7 8 8 9 10 10 11 12 11 11
14 16 17 20 21 21 21 20 19 17 16 14 13 11 9 7 6 5 4 4 4 5 4 4 3 3 3 3 3 4 5 6 6 7 8 8 8 10 11 11 12 12 11
14 16 19 22 23 23 22 21 19 18 16 15 13 11 10 8 7 5 4 4 5 5 4 4 4 4 4 4 4 4 5 5 6 7 7 8 8 9 11 12 13 13 13
15 16 19 21 24 25 24 23 21 19 18 16 14 12 10 9 7 5 4 4 4 4 4 4 4 4 4 4 4 4 5 5 6 6 6 7 7 8 10 11 12 14 14
13 15 18 20 23 24 23 23 22 20 19 17 15 13 11 9 8 6 4 3 3 3 3 4 4 3 3 3 3 4 4 4 4 5 6 6 6 7 8 9 10 12 12
12 14 18 19 21 23 24 24 23 22 20 18 16 14 12 10 8 6 4 3 3 3 3 3 3 3 3 3 3 3 3 3 4 5 5 6 6 7 7 7 8 10 11
11 12 17 19 21 23 25 25 23 22 21 19 17 15 13 11 8 6 5 4 3 3 3 3 2 2 2 2 2 3 3 3 3 3 4 5 5 5 5 5 6 7 9
9 12 15 19 21 23 24 24 23 23 21 20 18 15 13 11 9 7 6 4 3 3 3 3 2 2 2 2 3 3 3 3 3 3 3 3 4 4 5 5 5 6 7
9 11 15 18 21 22 23 23 24 23 21 20 19 16 14 12 10 8 7 6 4 3 4 3 3 2 2 2 2 2 2 2 2 2 2 3 3 4 4 4 5 5 5
9 11 13 17 20 21 21 23 24 23 22 21 20 17 15 13 11 9 8 7 6 5 5 4 4 3 3 2 2 2 2 2 2 2 2 3 3 4 4 4 4 5 5
9 10 13 16 19 21 22 22 23 22 22 22 19 18 16 14 12 10 9 8 7 6 6 5 5 4 3 3 2 2 2 2 2 3 3 3 3 3 4 4 4 5 6
8 10 12 15 18 21 23 22 22 22 22 22 20 18 17 15 14 12 10 9 8 8 7 6 6 5 4 4 3 3 3 3 3 3 3 3 4 4 4 5 5 6 6
6 8 11 14 17 20 23 22 22 22 23 23 20 18 17 16 15 13 12 11 10 9 9 8 7 7 6 5 4 4 4 5 5 5 5 5 6 6 6 6 7 7 7
4 7 10 13 15 18 21 21 22 22 23 23 21 19 18 17 15 14 14 12 12 11 10 10 9 8 7 7 6 6 6 6 7 7 7 7 8 8 8 8 9 9 10
Wind_Direction
184 180 179 180 183 185 186 183 177 166 154 142 132 120 107 93 80 71 67 64 61 61 65 70 71 69 72 77 79 83 87 94 101 112 121 129 133 136 140 140 141 137 132
195 189 185 184 187 189 191 191 185 174 160 148 138 126 113 97 83 72 66 63 62 62 64 69 74 73 75 81 88 92 96 99 108 116 125 133 136 143 143 141 139 139 135
199 194 191 190 190 194 197 197 192 182 169 157 147 134 117 101 86 75 66 62 61 61 62 69 78 79 79 86 95 99 98 101 109 121 129 138 143 149 147 144 142 141 137
203 199 195 196 196 197 198 198 194 186 176 164 154 141 124 107 91 78 69 64 60 60 63 69 81 83 82 89 99 105 106 108 114 124 135 142 149 154 154 152 147 143 141
208 203 200 199 200 199 200 200 196 189 181 172 162 151 132 114 97 84 74 67 60 60 64 70 79 85 88 96 107 116 118 121 131 138 139 148 156 160 158 157 152 151 149
214 208 206 205 205 203 204 204 201 194 187 180 172 161 142 121 105 92 76 64 58 60 64 67 73 78 88 105 118 128 135 140 139 143 141 154 165 166 166 165 162 163 161
218 214 212 210 209 209 209 208 205 199 193 188 181 173 156 137 120 95 73 60 51 53 56 53 54 60 80 114 140 146 149 151 145 143 147 159 169 172 172 172 171 172 171
222 219 217 213 211 211 211 208 207 205 201 197 191 183 172 159 137 104 72 54 43 39 35 21 20 38 63 152 171 181 183 176 171 163 161 165 173 174 173 174 176 177 176
228 222 219 214 213 211 210 209 210 208 206 203 199 194 185 176 162 125 72 38 25 20 8 351 346 338 260 216 206 203 200 192 187 187 184 182 180 181 183 179 182 182 182
233 226 220 217 213 212 211 211 212 211 211 208 207 205 197 192 195 168 70 345 338 342 338 337 329 315 267 235 224 216 209 201 200 202 201 198 194 192 190 186 185 188 191
236 231 223 219 215 214 209 210 212 214 215 214 214 212 210 210 211 213 263 288 297 307 314 321 320 310 265 236 230 221 215 209 211 212 211 207 204 201 198 194 194 197 200
238 231 224 219 217 215 210 212 215 216 216 216 218 220 219 219 222 233 258 268 277 286 295 303 303 302 263 236 230 226 221 221 223 219 217 213 212 209 208 207 206 206 206
239 232 225 220 217 216 215 215 217 217 216 218 219 221 221 225 232 241 252 260 267 272 276 282 287 284 266 245 238 232 228 231 235 229 220 218 219 220 219 217 212 209 208
238 233 227 220 219 218 218 218 218 218 218 221 220 221 223 230 235 242 246 252 260 266 269 273 276 270 260 251 241 236 235 233 233 232 227 226 227 228 228 224 219 215 212
245 234 231 222 220 218 219 218 218 218 220 221 220 223 226 231 234 238 244 254 263 267 265 265 267 267 262 259 254 244 237 234 237 238 232 230 232 234 234 233 229 224 221
241 234 230 225 220 217 217 216 217 220 221 221 222 225 226 227 230 234 243 257 265 261 254 253 261 268 266 264 264 258 253 245 243 241 235 232 234 238 237 237 236 231 227
248 234 225 222 217 215 214 215 216 218 218 219 222 223 225 227 231 237 243 254 258 252 242 241 247 260 260 260 263 258 254 249 242 240 236 234 237 242 244 242 242 235 233
255 237 222 218 216 215 213 214 214 212 215 218 220 222 225 228 232 236 236 241 245 238 230 230 236 249 254 256 254 251 250 247 240 241 237 238 241 242 244 245 247 243 242
260 237 224 218 214 215 214 214 213 213 214 217 218 221 225 226 228 228 229 231 232 223 217 222 224 234 240 244 244 244 245 242 238 235 234 237 238 239 244 248 250 245 246
260 235 222 217 214 214 214 214 213 213 215 217 219 221 222 223 222 223 224 224 220 215 213 210 204 215 224 231 237 241 244 243 243 241 237 236 241 247 252 253 252 247 248
256 233 225 220 216 214 214 215 216 214 215 219 218 218 219 218 216 217 220 220 216 209 206 203 192 197 205 212 219 228 236 250 253 256 246 238 244 257 259 257 256 256 256
252 238 235 223 217 214 212 214 213 214 216 215 214 216 217 217 216 217 221 219 214 209 204 202 195 195 196 192 202 218 234 245 247 255 248 246 253 263 267 274 268 263 262
253 247 237 224 218 214 212 213 214 213 213 211 212 214 216 217 219 220 221 217 211 208 207 205 200 198 199 198 207 222 229 242 246 247 252 259 266 272 274 275 276 274 270
257 242 230 221 215 214 213 212 210 211 213 211 212 214 216 218 219 221 222 216 213 212 212 209 207 206 208 214 222 233 241 243 246 247 254 265 271 275 279 276 278 279 279
258 235 221 215 214 213 211 211 211 213 212 212 213 215 218 219 221 225 224 221 220 218 217 218 218 217 219 224 231 240 245 249 252 257 260 263 267 271 274 276 279 282 283
265 231 214 210 212 211 210 211 212 212 213 214 215 218 219 220 223 226 225 225 223 221 222 225 226 226 229 235 240 245 251 255 258 261 264 267 268 270 272 274 277 278 279
Height
5888 5889 5890 5891 5892 5893 5894 5894 5895 5895 5895 5896 5896 5896 5897 5897 5897 5897 5897 5896 5896 5896 5896 5895 5895 5895 5894 5894 5894 5893 5893 5892 5892 5892 5891 5891 5891 5891 5891 5892 5893 5893 5894
5887 5888 5889 5890 5891 5892 5893 5894 5895 5895 5895 5895 5896 5896 5896 5897 5897 5897 5897 5896 5896 5896 5896 5895 5895 5895 5895 5894 5894 5894 5893 5893 5892 5892 5892 5892 5892 5892 5892 5893 5893 5894 5894
5886 5886 5887 5889 5890 5892 5893 5894 5894 5895 5895 5895 5896 5896 5896 5897 5897 5897 5897 5897 5896 5896 5896 5895 5895 5894 5894 5894 5894 5894 5893 5893 5892 5892 5892 5892 5892 5893 5893 5894 5894 5895 5895
5884 5885 5886 5888 5889 5891 5892 5893 5893 5894 5895 5895 5896 5896 5896 5897 5897 5897 5897 5897 5896 5896 5895 5895 5895 5894 5894 5894 5894 5894 5893 5893 5893 5893 5893 5892 5893 5893 5894 5895 5895 5896 5896
5883 5884 5885 5886 5888 5890 5891 5892 5893 5893 5894 5895 5895 5896 5896 5897 5897 5897 5897 5896 5896 5896 5895 5895 5895 5894 5894 5894 5894 5894 5894 5893 5893 5893 5893 5893 5893 5894 5894 5895 5896 5896 5897
5881 5882 5884 5885 5887 5888 5890 5891 5892 5893 5893 5894 5895 5896 5896 5896 5897 5897 5896 5896 5896 5896 5895 5895 5894 5894 5894 5894 5894 5894 5893 5893 5893 5893 5893 5893 5894 5894 5895 5896 5897 5897 5898
5880 5881 5882 5884 5885 5887 5888 5890 5891 5892 5893 5894 5894 5895 5896 5896 5896 5896 5896 5896 5896 5895 5895 5895 5894 5894 5894 5894 5893 5893 5893 5893 5893 5893 5893 5893 5894 5895 5895 5896 5897 5898 5898
5878 5879 5880 5882 5883 5885 5887 5889 5890 5891 5892 5893 5894 5894 5895 5896 5896 5896 5896 5895 5895 5895 5894 5894 5894 5893 5893 5893 5893 5893 5893 5893 5893 5893 5893 5894 5894 5895 5896 5896 5897 5898 5898
5876 5877 5878 5880 5881 5883 5885 5887 5888 5890 5891 5892 5893 5894 5895 5895 5895 5895 5895 5895 5894 5894 5894 5893 5893 5893 5892 5892 5893 5893 5893 5893 5893 5893 5893 5894 5894 5895 5896 5896 5897 5898 5899
5874 5874 5876 5877 5879 5881 5883 5885 5887 5888 5890 5891 5892 5893 5894 5894 5894 5894 5894 5894 5894 5893 5893 5892 5892 5892 5892 5892 5892 5892 5892 5892 5892 5893 5893 5893 5894 5895 5895 5896 5897 5898 5899
5871 5872 5873 5875 5877 5879 5880 5883 5884 5886 5888 5889 5890 5892 5893 5893 5893 5893 5893 5893 5893 5892 5892 5892 5891 5891 5891 5891 5891 5891 5891 5892 5892 5892 5893 5893 5894 5894 5895 5896 5897 5898 5899
5868 5869 5871 5873 5874 5876 5878 5880 5882 5884 5886 5888 5889 5890 5891 5892 5892 5892 5892 5892 5892 5892 5891 5891 5890 5890 5890 5890 5890 5890 5891 5891 5891 5891 5892 5892 5893 5894 5894 5895 5896 5897 5898
5865 5866 5868 5870 5872 5874 5876 5878 5880 5882 5884 5886 5887 5888 5890 5890 5891 5891 5891 5891 5891 5891 5890 5890 5889 5889 5889 5889 5889 5890 5890 5890 5890 5890 5891 5892 5892 5893 5893 5894 5895 5896 5897
5861 5863 5864 5867 5869 5871 5873 5876 5878 5880 5882 5884 5885 5886 5888 5889 5890 5890 5890 5890 5890 5890 5889 5889 5889 5888 5888 5888 5888 5889 5889 5889 5889 5889 5890 5891 5891 5892 5893 5893 5894 5895 5896
5858 5859 5860 5862 5865 5868 5870 5873 5876 5878 5880 5882 5883 5885 5886 5887 5888 5888 5889 5889 5889 5888 5888 5888 5888 5887 5887 5887 5888 5888 5888 5888 5888 5888 5889 5889 5890 5891 5891 5892 5893 5893 5894
5853 5855 5857 5858 5861 5864 5867 5870 5873 5876 5878 5880 5882 5883 5884 5886 5886 5887 5887 5888 5888 5887 5887 5887 5887 5887 5887 5887 5887 5887 5887 5887 5887 5887 5888 5888 5889 5890 5890 5891 5891 5892 5893
5849 5851 5853 5855 5857 5860 5863 5866 5870 5873 5875 5878 5880 5881 5883 5884 5885 5885 5886 5887 5887 5886 5886 5886 5886 5886 5886 5886 5886 5886 5886 5886 5886 5886 5887 5887 5888 5888 5888 5889 5889 5890 5891
5846 5847 5849 5851 5854 5857 5860 5863 5867 5870 5873 5875 5878 5880 5881 5883 5884 5884 5885 5885 5886 5886 5886 5886 5886 5886 5886 5886 5886 5886 5886 5886 5885 5886 5886 5886 5886 5887 5887 5887 5888 5888 5889
5842 5843 5845 5848 5851 5854 5857 5860 5864 5867 5870 5873 5875 5878 5879 5881 5882 5883 5884 5884 5885 5885 5885 5885 5885 5885 5885 5885 5885 5885 5885 5885 5885 5885 5885 5886 5885 5886 5886 5886 5886 5887 5888
5840 5841 5842 5845 5847 5850 5854 5857 5861 5864 5867 5870 5873 5875 5877 5879 5880 5881 5882 5883 5884 5884 5884 5885 5885 5885 5885 5885 5885 5885 5885 5885 5885 5885 5885 5885 5885 5885 5885 5886 5886 5886 5886
5838 5838 5840 5842 5844 5847 5851 5855 5858 5862 5865 5868 5871 5873 5875 5877 5879 5880 5881 5882 5883 5883 5884 5884 5884 5885 5885 5885 5885 5885 5885 5885 5885 5885 5885 5885 5885 5885 5885 5885 5885 5885 5885
5836 5837 5837 5839 5842 5845 5848 5852 5855 5859 5862 5865 5868 5871 5873 5875 5877 5879 5880 5881 5882 5883 5883 5884 5884 5884 5885 5885 5885 5885 5885 5885 5885 5884 5884 5885 5885 5884 5884 5884 5884 5884 5884
5833 5834 5835 5837 5839 5842 5845 5849 5852 5856 5859 5862 5866 5869 5871 5873 5875 5877 5878 5880 5881 5881 5882 5883 5883 5884 5884 5884 5885 5885 5885 5885 5885 5885 5884 5884 5884 5884 5884 5883 5883 5883 5883
5831 5831 5832 5834 5836 5839 5843 5846 5850 5853 5857 5860 5863 5866 5869 5871 5873 5875 5877 5878 5879 5880 5881 5882 5883 5883 5884 5884 5884 5884 5884 5884 5884 5884 5884 5884 5884 5883 5883 5883 5882 5882 5882
5828 5828 5829 5831 5834 5836 5840 5843 5847 5851 5855 5858 5861 5864 5867 5869 5871 5873 5875 5876 5878 5879 5880 5881 5882 5882 5883 5883 5884 5884 5883 5884 5884 5884 5884 5883 5883 5883 5882 5882 5882 5881 5881
5827 5826 5827 5829 5831 5833 5837 5840 5844 5848 5852 5855 5859 5862 5864 5867 5869 5871 5873 5875 5876 5877 5878 5879 5880 5881 5882 5882 5882 5882 5883 5883 5883 5883 5882 5882 5882 5882 5881 5881 5880 5880 5879